Precipitable_Water
0.33 0.33 0.34 0.34 0.41 0.47 0.47 0.50 0.55 0.58 0.67 0.79 1.17 1.41 1.44 1.52 1.55 1.59 1.59 1.58 1.57 1.52 1.44 1.39 1.41 1.53 1.56 1.54 1.47 1.36 1.34 1.41
0.29 0.28 0.29 0.27 0.29 0.36 0.40 0.46 0.47 0.48 0.52 0.58 0.68 0.97 1.33 1.42 1.48 1.53 1.57 1.56 1.56 1.55 1.47 1.46 1.41 1.50 1.58 1.50 1.50 1.48 1.46 1.49
0.29 0.29 0.28 0.26 0.27 0.29 0.31 0.35 0.40 0.43 0.43 0.45 0.48 0.60 0.82 1.24 1.40 1.46 1.50 1.55 1.53 1.56 1.53 1.51 1.45 1.46 1.55 1.58 1.52 1.52 1.51 1.54
0.30 0.31 0.29 0.27 0.26 0.26 0.28 0.31 0.36 0.38 0.39 0.39 0.41 0.45 0.54 0.73 1.19 1.36 1.49 1.50 1.51 1.53 1.56 1.50 1.58 1.42 1.49 1.56 1.52 1.54 1.55 1.52
0.28 0.28 0.27 0.25 0.24 0.24 0.26 0.31 0.35 0.38 0.36 0.35 0.37 0.38 0.41 0.49 0.70 1.12 1.34 1.42 1.48 1.50 1.52 1.53 1.46 1.56 1.42 1.45 1.53 1.54 1.57 1.54
0.28 0.28 0.25 0.24 0.22 0.22 0.25 0.29 0.34 0.36 0.35 0.33 0.32 0.32 0.34 0.36 0.48 0.67 1.03 1.32 1.35 1.43 1.47 1.47 1.43 1.46 1.57 1.40 1.41 1.53 1.57 1.58
0.28 0.28 0.26 0.26 0.23 0.22 0.24 0.27 0.30 0.34 0.34 0.32 0.29 0.28 0.30 0.33 0.38 0.47 0.64 0.90 1.25 1.33 1.37 1.47 1.42 1.43 1.54 1.44 1.38 1.42 1.51 1.56
0.29 0.28 0.28 0.28 0.25 0.23 0.24 0.26 0.29 0.32 0.30 0.30 0.27 0.28 0.29 0.29 0.32 0.38 0.46 0.62 0.95 1.20 1.31 1.38 1.41 1.46 1.46 1.54 1.38 1.36 1.47 1.51
0.27 0.29 0.30 0.29 0.28 0.27 0.24 0.27 0.28 0.28 0.29 0.28 0.23 0.28 0.29 0.30 0.30 0.32 0.39 0.48 0.61 1.00 1.18 1.22 1.36 1.45 1.46 1.54 1.49 1.37 1.40 1.48
0.27 0.30 0.30 0.30 0.29 0.28 0.27 0.26 0.27 0.28 0.28 0.29 0.27 0.25 0.28 0.30 0.30 0.29 0.34 0.41 0.48 0.61 0.97 1.11 1.20 1.31 1.36 1.50 1.51 1.41 1.38 1.49
0.27 0.29 0.30 0.30 0.30 0.29 0.27 0.27 0.28 0.29 0.29 0.30 0.26 0.26 0.27 0.30 0.31 0.28 0.31 0.35 0.41 0.49 0.62 0.99 1.07 1.18 1.33 1.45 1.54 1.45 1.37 1.48
0.29 0.30 0.31 0.31 0.31 0.29 0.27 0.26 0.28 0.30 0.28 0.27 0.27 0.28 0.27 0.29 0.30 0.30 0.31 0.32 0.35 0.43 0.51 0.67 1.00 1.07 1.15 1.33 1.50 1.50 1.43 1.41
0.29 0.30 0.32 0.32 0.30 0.27 0.24 0.23 0.27 0.27 0.27 0.26 0.26 0.28 0.29 0.29 0.29 0.30 0.31 0.31 0.32 0.38 0.47 0.56 0.78 1.06 1.14 1.23 1.45 1.42 1.35 1.34
0.31 0.32 0.33 0.33 0.32 0.29 0.26 0.27 0.28 0.27 0.27 0.26 0.28 0.29 0.30 0.29 0.29 0.29 0.32 0.31 0.32 0.33 0.41 0.48 0.61 0.88 0.96 1.03 1.03 1.25 1.32 1.32
0.31 0.32 0.33 0.33 0.31 0.27 0.27 0.28 0.26 0.24 0.25 0.26 0.28 0.30 0.30 0.31 0.30 0.30 0.31 0.32 0.32 0.32 0.37 0.44 0.47 0.73 0.91 0.96 0.93 0.98 1.15 1.27
0.33 0.34 0.33 0.31 0.29 0.26 0.27 0.25 0.22 0.25 0.27 0.30 0.30 0.31 0.31 0.31 0.32 0.32 0.30 0.33 0.31 0.32 0.34 0.38 0.47 0.52 0.80 0.94 1.01 1.01 1.00 1.04
0.33 0.33 0.30 0.28 0.26 0.29 0.26 0.24 0.25 0.27 0.28 0.29 0.31 0.32 0.31 0.31 0.33 0.32 0.32 0.33 0.32 0.32 0.31 0.32 0.44 0.48 0.62 0.79 0.91 0.98 1.06 1.05
0.32 0.29 0.26 0.25 0.27 0.29 0.26 0.25 0.25 0.25 0.27 0.28 0.31 0.31 0.30 0.32 0.34 0.33 0.34 0.34 0.33 0.31 0.30 0.32 0.40 0.47 0.53 0.62 0.84 0.88 0.94 0.99
0.29 0.26 0.23 0.25 0.28 0.28 0.26 0.26 0.27 0.27 0.28 0.30 0.30 0.28 0.29 0.32 0.34 0.34 0.32 0.33 0.35 0.30 0.28 0.32 0.37 0.43 0.50 0.55 0.68 0.87 0.92 0.97
0.26 0.22 0.22 0.26 0.27 0.27 0.27 0.27 0.28 0.29 0.30 0.29 0.29 0.30 0.32 0.34 0.34 0.34 0.33 0.33 0.34 0.30 0.29 0.32 0.36 0.40 0.47 0.54 0.57 0.69 0.87 0.94
Wind_Speed
31 31 31 31 31 31 31 30 30 30 31 30 31 32 33 32 31 30 28 28 27 26 26 25 24 23 22 20 20 21 20 19
32 32 32 32 32 31 31 31 31 31 31 31 32 33 35 34 34 33 31 30 29 28 27 28 26 26 24 23 23 24 23 21
32 32 32 33 32 32 32 32 31 31 31 32 32 33 33 37 36 35 34 32 31 31 29 29 29 27 27 25 25 26 25 24
31 32 33 33 32 32 32 32 31 31 31 32 32 33 34 34 38 37 36 34 34 32 32 31 31 31 28 27 28 28 28 26
31 33 34 34 33 33 32 32 31 31 32 32 33 33 33 35 35 38 38 39 35 34 34 33 32 32 32 30 29 30 30 29
31 33 34 34 34 34 33 32 31 31 32 33 33 33 33 34 35 36 38 40 38 37 37 34 35 34 35 34 32 32 32 32
32 33 34 35 35 35 34 33 33 33 33 33 33 32 33 33 34 35 37 39 39 37 37 37 36 37 35 37 35 34 34 33
33 34 35 36 36 37 36 35 35 35 35 34 33 32 31 32 33 34 35 39 42 46 35 37 38 39 38 39 37 36 36 37
32 34 36 37 37 38 38 37 36 36 36 35 34 31 30 30 31 32 33 36 38 40 43 41 39 41 39 41 39 39 37 38
33 34 36 38 39 40 40 39 38 38 37 36 35 32 30 28 29 30 32 32 36 37 41 42 43 38 43 43 42 40 39 38
33 35 37 39 40 42 42 41 40 40 39 37 36 33 30 27 27 28 29 30 31 35 37 39 43 43 38 40 45 42 41 39
34 35 37 39 41 43 43 42 41 41 40 39 36 32 30 27 26 25 26 28 28 30 35 37 37 39 45 42 45 45 42 41
33 35 38 40 42 44 44 43 43 42 40 38 35 32 28 25 24 23 24 25 26 27 29 33 37 30 40 36 34 42 40 40
33 36 38 41 43 45 46 45 44 43 40 37 34 31 26 24 22 22 21 22 24 24 25 30 35 34 34 37 29 38 42 39
33 36 39 42 45 47 45 45 45 43 39 37 34 29 24 21 20 19 19 19 21 22 23 26 33 34 33 32 38 32 37 39
33 36 40 44 47 46 46 47 46 44 39 36 31 26 21 19 18 18 17 18 19 20 20 23 28 33 33 33 32 34 33 36
34 37 41 45 46 45 47 47 46 43 39 34 28 25 20 17 16 16 16 16 17 18 19 20 23 30 35 33 31 32 34 32
34 38 42 45 45 45 47 47 46 43 39 32 27 24 19 15 15 14 14 14 15 16 17 18 21 25 31 37 36 32 29 29
35 39 42 44 44 45 47 46 45 43 38 31 27 24 19 15 14 13 13 13 13 14 16 16 18 22 27 34 37 38 33 33
35 39 41 43 44 45 45 45 44 42 37 31 26 22 19 16 14 13 13 13 12 14 14 16 16 19 23 29 34 38 39 36
Wind_Direction
326 324 322 319 315 311 307 303 298 293 288 284 276 271 267 267 263 262 260 256 253 251 247 242 239 234 229 223 217 210 206 204
328 327 324 322 317 314 310 304 300 297 292 285 280 275 268 265 263 260 260 255 252 249 248 241 238 235 230 223 218 212 208 206
333 332 330 327 322 318 313 309 304 300 296 290 283 277 274 265 262 261 257 254 251 247 245 242 237 235 230 226 219 215 211 208
338 337 336 333 330 325 320 314 309 302 299 294 288 281 275 271 262 259 256 255 250 247 243 241 237 234 232 227 222 218 214 213
339 339 338 336 333 330 326 322 316 309 304 298 291 285 278 271 267 260 255 255 250 247 242 239 237 234 232 228 224 220 217 214
342 342 340 339 336 333 329 326 323 317 312 305 297 288 281 274 267 262 257 253 250 246 242 238 236 236 233 229 226 221 218 216
344 344 344 342 341 337 333 329 325 320 317 311 304 293 284 275 268 264 258 254 250 238 245 235 237 235 235 229 228 223 219 217
345 345 345 345 342 339 335 331 328 324 320 315 310 300 290 280 270 264 262 256 252 246 242 240 239 236 235 230 227 224 220 216
347 347 347 346 344 341 338 333 330 327 323 319 314 306 296 284 274 266 263 260 255 249 243 244 242 234 236 229 227 224 220 216
348 348 347 347 345 343 340 335 331 327 324 320 315 309 299 290 279 270 265 261 256 249 245 242 238 238 236 229 226 222 219 216
347 347 347 346 345 344 341 337 332 328 324 319 317 310 301 292 283 274 266 261 258 251 246 242 239 236 235 231 224 221 218 215
347 347 347 346 345 344 342 338 334 330 325 320 316 310 302 292 287 279 268 260 259 254 247 241 239 240 233 232 231 221 218 216
346 347 346 346 345 343 342 340 336 332 327 322 317 311 303 293 287 281 272 263 259 255 249 241 234 239 226 226 217 214 213 216
346 346 346 345 344 343 341 339 338 334 330 326 320 313 303 293 287 281 276 266 259 257 251 242 233 234 232 225 220 211 214 214
346 346 345 345 344 343 342 341 339 336 333 329 323 316 305 295 287 282 277 269 260 257 252 244 235 232 229 222 218 218 218 218
346 346 346 346 345 345 344 343 341 338 335 332 328 322 309 298 288 282 279 273 264 257 254 250 238 231 226 223 225 226 221 224
347 347 347 347 346 347 345 345 344 342 339 336 333 329 317 302 295 286 281 277 268 258 257 253 240 231 228 226 224 226 223 221
347 347 348 348 349 348 348 347 346 345 343 341 337 333 324 310 302 291 286 283 272 262 262 254 243 235 229 226 223 221 220 219
347 348 349 350 351 350 350 349 349 349 347 345 341 338 332 320 310 298 292 288 278 272 263 254 247 239 233 227 226 223 225 224
348 349 350 351 352 351 352 352 352 353 351 347 345 342 337 329 319 306 298 291 282 282 267 253 251 243 235 230 226 224 225 223